Starlink 11112

operational
NORAD ID: 60115 Int'l Des: 2024-118 Owner: SPXS Country: US Constellation: starlink
LEOCIRCULAR

Über Starlink 11112

Beschreibung wird geladen...

Live-Position

3D-Globus wird geladen...

Nächste Überflüge

Höhenverlauf

Altitude vs Time

uPlot chart will show altitude changes over time

Zweizeiliger Elementsatz

1 60115U 24118C 25352.14883249 .00002925 00000-0 28983-4 0 9997
2 60115 53.1575 263.4315 0001093 90.8687 269.2456 15.69717544 85181
Epoch: 18. Dez. 2025 • Age: 9 hours

Aktueller Status

Höhe 361.0 km
Geschwindigkeit 7.70 km/s
Subsatellitenpunkt 29.94°N, 5.99°E
Startdatum 24. Juni 2024
Alter 1.4 years
Typ internet

Technische Details

Klassifizierung Payload
Masse 960.00 kg
Trockenmasse 910.00 kg
Gesamtmasse 960.00 kg
Länge 0.30 m
Durchmesser 4.10 m
Spannweite 29.00 m
Form Box + pan
Hersteller SPXS
Bus-Typ Starlink V2MD
Phasenstatus In Orbit
Besitzer/Staat SPXS/US

Große Konstellationen

Loading constellations...